FW5392 Weather Reports


time (UTC)temp
C
wind
direction
speed
KPH
gust
KPH
rain 1hr
cm
rain 24hr
cm
rain mn
cm
humidity
%
barometer
mb
20260503160117 23 108 0.0 6.4 0.00 0.00 0.00 48 1018.6
20260503150524 23 66 1.6 6.4 0.00 0.00 0.00 53 1018.9
20260503131048 25 56 0.0 6.4 0.00 0.00 0.00 51 1019.6
20260503130524 25 57 1.6 4.8 0.00 0.00 0.00 47 1019.6
20260503110600 23 71 0.0 6.4 0.00 0.00 0.00 56 1020.3
20260503081533 21 32 1.6 8.0 0.00 0.00 0.00 50 1021.4
20260503081103 22 18 1.6 8.0 0.00 0.00 0.00 51 1021.3
20260503080524 22 34 0.0 4.8 0.00 0.00 0.00 48 1021.3
20260503080104 22 31 0.0 6.4 0.00 0.00 0.00 46 1021.4
20260503072526 20 359 1.6 11.3 0.00 0.00 0.00 46 1021.3
20260503072053 20 2 4.8 11.3 0.00 0.00 0.00 46 1021.3
20260503071531 20 242 0.0 8.0 0.00 0.00 0.00 49 1021.3
20260503071059 20 259 1.6 8.0 0.00 0.00 0.00 49 1021.3
20260503070532 20 254 1.6 8.0 0.00 0.00 0.00 48 1021.3
20260503055023 15 248 3.2 8.0 0.00 0.00 0.00 58 1021.2
20260503054600 15 155 1.6 8.0 0.00 0.00 0.00 58 1021.2
20260503054021 15 134 1.6 6.4 0.00 0.00 0.00 60 1021.1
20260503053542 15 184 1.6 9.7 0.00 0.00 0.00 59 1021.2
20260503053104 14 133 3.2 11.3 0.00 0.00 0.00 61 1021.1
20260503052040 12 179 4.8 8.0 0.00 0.00 0.00 67 1021.1
20260503051507 12 252 4.8 9.7 0.00 0.00 0.00 67 1021.1
20260503051041 12 185 3.2 9.7 0.00 0.00 0.00 68 1021.1
20260503050505 11 158 4.8 9.7 0.00 0.00 0.00 69 1021.1
20260503050046 11 202 3.2 9.7 0.00 0.00 0.00 69 1021.1
20260503045508 11 164 4.8 9.7 0.00 0.00 0.00 70 1021.1
20260503045049 10 212 6.4 9.7 0.00 0.00 0.00 70 1021.1
20260503044523 10 45 4.8 9.7 0.00 0.00 0.00 69 1021.0
20260503044053 10 213 3.2 9.7 0.00 0.00 0.00 70 1021.1
20260503043511 10 298 4.8 8.0 0.00 0.00 0.00 70 1021.1
20260503043051 10 150 4.8 8.0 0.00 0.00 0.00 69 1021.1
20260503042528 10 154 4.8 8.0 0.00 0.00 0.00 68 1021.0
20260503042050 11 216 3.2 6.4 0.00 0.00 0.00 66 1021.2
20260503041521 12 140 0.0 1.6 0.00 0.00 0.00 66 1021.1
20260503041049 11 140 0.0 1.6 0.00 0.00 0.00 68 1021.2
20260503040509 11 154 0.0 8.0 0.00 0.00 0.00 65 1021.1
20260503040059 11 128 1.6 8.0 0.00 0.00 0.00 64 1021.0
20260503035530 11 207 3.2 8.0 0.00 0.00 0.00 65 1021.0
20260503035053 11 197 3.2 9.7 0.00 0.00 0.00 65 1021.0